Location: Excel
(51.3833°N, 110.5667°W)
Time: 21:10:52
(UTC+00:00)

Envisat - Pass Details

Date: 06 December 2021
Orbit: 764 x 766 km, 98.2° (Epoch: 26 January)

Event Time Altitude Azimuth Distance (km) Brightness Sun altitude
Rises 00:33:53 0° 203° (SSW) 3,222 7.0 -11.6°
Reaches altitude 10° 00:36:40 10° 219° (SW) 2,302 6.5 -12.0°
Maximum altitude 00:40:35 22° 270° (W) 1,620 5.6 -12.5°
Drops below altitude 10° 00:44:33 10° 321° (NW) 2,315 5.7 -13.1°
Sets 00:47:22 0° 336° (NNW) 3,247 6.3 -13.5°
